This is the latest recevied weather packets stored in our database for station/object K0NV. If no packets are shown the sender has not sent any weather packets the latest 10 day(s).
| Time | Temp. | Humidity | Pressure | Rain* | Wind** | Luminosity | Snow |
|---|---|---|---|---|---|---|---|
| 1777694462 | 10.56° C | 55% | 1019.3 hPa | 0 mm | - | 0 W/m² | - |
| 1777694157 | 10.56° C | 55% | 1019.3 hPa | 0 mm | - | 0 W/m² | - |
| 1777693855 | 10.56° C | 58% | 1019.3 hPa | 0 mm | - | 0 W/m² | - |
| 1777693552 | 10.56° C | 59% | 1019.5 hPa | 0 mm | - | 0 W/m² | - |
| 1777693250 | 10.56° C | 58% | 1019.6 hPa | 0 mm | - | 0 W/m² | - |
| 1777692949 | 10.56° C | 59% | 1019.7 hPa | 0 mm | - | 0 W/m² | - |
| 1777692645 | 10.56° C | 61% | 1019.6 hPa | 0 mm | - | 0 W/m² | - |
| 1777692341 | 10.56° C | 61% | 1019.6 hPa | 0 mm | - | 0 W/m² | - |
| 1777692038 | 10.56° C | 64% | 1019.5 hPa | 0 mm | - | 0 W/m² | - |
| 1777691736 | 10.56° C | 63% | 1019.7 hPa | 0 mm | - | 0 W/m² | - |
| 1777691434 | 10.56° C | 61% | 1019.7 hPa | 0 mm | - | 0 W/m² | - |
| 1777691132 | 10.56° C | 62% | 1019.6 hPa | 0 mm | - | 0 W/m² | - |
| 1777690830 | 10.56° C | 61% | 1019.7 hPa | 0 mm | - | 0 W/m² | - |
| 1777690527 | 10.56° C | 60% | 1019.6 hPa | 0 mm | - | 0 W/m² | - |
| 1777690225 | 11.11° C | 56% | 1019.6 hPa | 0 mm | - | 0 W/m² | - |
| 1777689922 | 11.11° C | 56% | 1019.5 hPa | 0 mm | - | 0 W/m² | - |
| 1777689621 | 11.11° C | 58% | 1019.7 hPa | 0 mm | - | 0 W/m² | - |
| 1777689318 | 11.11° C | 56% | 1019.3 hPa | 0 mm | - | 0 W/m² | - |
| 1777689015 | 11.11° C | 56% | 1019.3 hPa | 0 mm | - | 0 W/m² | - |
| 1777688711 | 11.11° C | 59% | 1019.6 hPa | 0 mm | - | 0 W/m² | - |
| 1777688409 | 11.67° C | 58% | 1019.3 hPa | 0 mm | - | 0 W/m² | - |
| 1777688106 | 11.67° C | 57% | 1019.3 hPa | 0 mm | - | 0 W/m² | - |
| 1777687803 | 11.67° C | 57% | 1019.1 hPa | 0 mm | - | 0 W/m² | - |
| 1777687501 | 11.67° C | 55% | 1019.3 hPa | 0 mm | - | 0 W/m² | - |
| 1777687197 | 11.67° C | 55% | 1019.2 hPa | 0 mm | - | 0 W/m² | - |
* Rain latest hour (hover to see other rain measurements)
** Current wind speed in m/s (hover to see current wind gust speed)